Location: Bois de la Silve
(44.4667°N, 6.7833°E)
Time: 00:45:01
(UTC+00:00)

Daily predictions for brighter satellites

Satellite Brightness Start Highest point End
(mag) Time Altitude Azimuth Time Altitude Azimuth Time Altitude Azimuth
CZ-4 R/B 3.7 00:04:15 10° NNE 00:09:02 89° W 00:09:36 70° SSW
Cosmos 1441 Rocket 3.8 00:10:43 52° WNW 00:10:43 52° WNW 00:14:25 10° N
Landsat 4 4.3 00:07:12 10° N 00:10:43 51° WNW 00:10:43 51° WNW
Lacrosse 5 2.1 00:10:40 40° WSW 00:12:21 65° NW 00:17:27 10° NE
SL-16 R/B 3.8 00:11:55 14° ESE 00:16:37 36° ENE 00:22:14 10° N
BREEZE-M DEB (TANK) 3.6 00:10:01 10° WSW 00:20:04 90° W 00:23:40 10° ENE
Cosmos 1447 Rocket 4.5 00:15:04 10° N 00:21:25 84° E 00:23:37 44° SSE
Meteor 1-4 Rocket 2.8 00:18:09 10° N 00:21:27 66° NNE 00:21:27 66° NNE
Cosmos 1933 Rocket 3.6 00:23:25 60° ESE 00:23:42 61° E 00:28:00 10° NNE
Okean 1 4.0 00:19:52 10° N 00:23:42 45° ENE 00:24:06 43° E
Cosmos 1666 Rocket 4.3 00:23:50 40° W 00:24:09 41° WNW 00:28:18 10° N
CZ-4C R/B 4.1 00:19:29 10° WNW 00:25:32 26° WSW 00:26:33 26° WSW
Iridium 4 Rocket 3.6 00:24:13 54° S 00:25:36 88° W 00:31:00 10° N
Helios 1B rocket 2.6 00:28:47 10° N 00:32:50 59° WNW 00:33:01 58° W
USA 267 3.6 00:32:12 41° SSW 00:32:57 42° SW 00:39:06 10° WNW
NOSS 2-1 (C) 4.4 00:27:53 10° NW 00:33:06 78° NE 00:39:01 16° SE
Cosmos 1703 Rocket 4.0 00:32:41 10° N 00:37:05 55° ENE 00:38:05 44° SE
NOSS 2-1 (D) 4.4 00:32:36 10° NW 00:37:53 84° NE 00:43:45 17° SE
Cosmos 2082 Rocket 4.1 00:40:40 14° SE 00:43:03 18° E 00:46:49 10° ENE
SeaSat 1 3.7 00:39:41 10° NE 00:43:53 28° ESE 00:45:02 25° SE
Cosmos 614 Rocket 4.1 00:43:22 48° SSE 00:44:28 59° ESE 00:49:31 10° NNE
Cosmos 1833 Rocket 3.8 00:44:54 26° SE 00:46:40 32° ESE 00:51:35 10° NE
CZ-2D R/B 2.9 00:42:06 10° NNE 00:47:12 43° E 00:49:08 32° SE
Cosmos 2100 Rocket 4.1 00:45:06 39° S 00:47:31 74° E 00:53:45 10° NNE
DELTA 2 DEB (DPAF) 4.4 00:46:51 44° SE 00:48:05 65° ENE 00:52:31 10° N
Meteor 1-25 Rocket 4.2 00:47:42 47° SW 00:49:17 70° WNW 00:54:52 10° N
Cosmos 1184 Rocket 3.4 00:49:58 53° NNW 00:49:58 53° NNW 00:52:39 10° N
Cosmos 1238 Rocket 4.0 00:50:04 39° WSW 00:51:13 46° W 00:55:42 10° N
COSMOS 2406 3.6 00:49:39 39° SSE 00:51:26 53° ESE 00:57:01 10° NE
Cosmos 405 Rocket 2.6 00:52:44 71° ESE 00:52:51 71° E 00:56:37 10° NNE
Cosmos 1656 4.0 00:47:28 10° NNW 00:52:52 61° ENE 00:56:32 21° SE
Cosmos 1140 Rocket 4.3 00:52:12 32° SE 00:53:46 41° ESE 00:58:40 10° NE
Cosmos 1459 Rocket 3.9 00:52:49 39° S 00:55:11 77° E 01:01:21 10° N
Cosmos 407 Rocket 3.8 00:55:13 41° SSE 00:56:49 58° ESE 01:02:04 10° NNE
Cosmos 1500 3.9 00:58:26 40° ESE 00:58:56 43° E 01:02:33 10° NNE
Meteor 1-20 Rocket 4.5 00:58:23 40° SW 01:00:05 55° WNW 01:05:40 10° N
Meteor 1-29 3.9 00:57:27 10° N 01:00:26 37° WNW 01:00:26 37° WNW
Cosmos 220 Rocket 4.4 00:57:04 10° NNW 01:01:17 59° ENE 01:02:54 34° SE
SL-24 DEB 4.4 00:57:38 10° N 01:02:19 63° W 01:03:20 49° SW
Cosmos 1802 Rocket 4.1 01:03:01 35° S 01:05:56 77° E 01:12:22 10° N
Meteor 1-18 Rocket 4.3 01:05:06 10° NNW 01:10:52 64° W 01:12:51 40° SSW
CZ-4C R/B 3.2 01:11:31 55° SSE 01:12:17 77° ENE 01:15:58 10° N
Cosmos 1666 4.2 01:13:11 23° SE 01:14:26 28° E 01:17:42 10° NNE
Cosmos 1515 3.6 01:11:46 10° NNW 01:15:34 65° W 01:15:49 63° WSW
Okean 1-7 3.1 01:14:36 10° NNW 01:18:57 60° W 01:19:46 50° SW
Cosmos 1725 Rocket 4.1 01:21:06 29° S 01:24:26 73° E 01:30:40 10° NNE
Meteor 1-19 Rocket 4.4 01:19:46 10° NNW 01:25:14 54° W 01:27:06 37° SSW
ADEOS II 3.1 01:20:33 10° NNE 01:25:26 38° E 01:28:37 19° SSE
NPP 3.6 01:20:59 10° NNE 01:26:25 81° ESE 01:28:50 34° S
Resurs 1-4 Rocket 2.1 01:24:44 10° NNE 01:30:05 80° WNW 01:32:21 36° SSW
ISS -1.6 01:28:32 10° NW 01:31:31 29° NNE 01:34:31 10° ENE
SL-08 R/B 4.5 01:28:13 30° S 01:31:34 85° E 01:37:45 10° N
Cosmos 1733 Rocket 4.1 01:29:33 23° SSE 01:31:44 39° E 01:35:47 10° NNE
Cosmos 1241 Rocket 4.5 01:26:46 10° NW 01:33:14 84° WSW 01:39:46 10° SSE
AQUA 3.8 01:29:33 10° NNE 01:34:21 79° ESE 01:36:23 35° S
UNK 3.8 01:33:05 40° SSW 01:34:33 61° WSW 01:39:10 10° NNW
Abrixas rocket 3.0 01:35:13 15° WNW 01:37:21 44° NNE 01:40:08 10° E
Tsikada Rocket 4.1 01:33:38 10° N 01:40:06 83° E 01:45:05 18° S
ATLAS 5 CENTAUR R/B 3.5 01:37:08 10° NNW 01:42:32 46° NE 01:48:45 10° ESE
Gbstr 26 Del rocket 3.7 01:40:14 10° NW 01:44:18 58° NNE 01:49:11 10° ESE
Cosmos 2061 Rocket 4.1 01:41:58 29° SSW 01:45:19 66° W 01:51:36 10° N
Cosmos 2369 3.7 01:42:19 10° NNW 01:48:06 85° ENE 01:53:50 10° SSE
Cosmos 1980 Rocket 3.0 01:43:15 10° NNW 01:48:52 53° ENE 01:54:23 10° SE
SL-8 R/B 3.9 01:46:36 19° W 01:49:59 68° NNW 01:54:48 10° ENE
Lacrosse 5 3.9 01:52:01 10° WNW 01:56:09 24° NNW 02:00:17 10° NE
Cosmos 2016 Rocket 4.3 01:53:42 27° SW 01:56:58 54° WNW 02:03:04 10° N
Okean 3 3.5 01:53:01 10° NNW 01:57:08 57° W 01:58:48 32° SSW
IRS-P3 4.5 01:52:51 10° NNE 01:58:09 61° ESE 02:01:59 19° S
Meteor 1-5 Rocket 4.4 01:55:49 27° SSW 01:58:51 61° WNW 02:04:39 10° N
SL-16 R/B 3.0 01:57:01 25° SSW 02:00:06 42° W 02:06:02 10° NNW
IDEFIX/ARIANE 42P 4.3 01:56:35 10° NE 02:00:58 27° E 02:05:19 10° SSE
BREEZE-M DEB (TANK) 3.3 01:59:18 10° WNW 02:02:09 62° SSW 02:11:48 10° SE
Cosmos 1536 2.8 02:02:53 30° SSW 02:04:48 80° W 02:08:53 10° N
Meteor 2-4 Rocket 4.3 01:59:56 10° NNW 02:05:28 42° W 02:08:32 24° SSW
Cosmos 1356 3.9 02:04:45 25° SSE 02:06:29 57° E 02:09:52 10° NNE
Meteor 1-11 Rocket 3.7 02:04:11 24° SSW 02:07:34 73° WNW 02:13:06 10° N
Cosmos 2278 3.8 02:02:47 10° NNW 02:08:33 84° ENE 02:14:16 10° SSE
H-2A R/B 4.2 02:05:58 10° SE 02:09:39 27° ENE 02:13:17 10° N
SL-16 R/B 4.4 02:06:10 10° N 02:10:58 27° NE 02:15:45 10° ESE
Cosmos 1954 Rocket 4.1 02:08:19 25° SW 02:11:23 68° WNW 02:16:42 10° NNE
Cosmos 1437 Rocket 4.1 02:09:22 10° NW 02:12:37 24° W 02:13:22 22° WSW
Cosmos 921 Rocket 2.9 02:09:00 10° NNW 02:13:25 75° WSW 02:17:11 13° S
Cosmos 1697 Rocket 2.8 02:11:30 10° NW 02:16:58 52° WSW 02:22:17 10° S
Cosmos 2221 Rocket 4.1 02:13:06 10° NNW 02:17:15 41° W 02:19:27 24° SSW
SeaSat 1 3.1 02:16:50 10° NNE 02:21:31 44° NW 02:24:48 19° WSW
Cosmos 1378 Rocket 3.7 02:19:06 10° N 02:23:32 78° E 02:27:57 10° SSE
CZ-4B R/B 4.1 02:21:20 10° N 02:26:04 41° WNW 02:29:11 19° SW
IRS-1D 3.8 02:21:25 10° N 02:26:13 51° WNW 02:29:29 20° SW
Cosmos 2082 Rocket 2.3 02:22:31 20° SW 02:26:30 70° WNW 02:32:14 10° NNE
CZ-2D R/B 3.4 02:22:33 10° N 02:27:03 28° WNW 02:30:27 15° WSW
COBE Rocket 4.0 02:23:54 15° S 02:28:00 56° W 02:32:51 10° NNW
Aureole 1 Rocket 4.3 02:26:01 19° WSW 02:29:04 39° WNW 02:34:43 10° N
Cosmos 1833 Rocket 3.4 02:26:35 17° WSW 02:30:27 41° WNW 02:35:45 10° NNE
Cosmos 1763 Rocket 3.8 02:25:16 10° NNW 02:30:32 71° ENE 02:35:50 10° SSE
ERS-2 3.6 02:30:28 10° SE 02:33:51 39° ENE 02:37:16 10° N
Meteor 1-23 Rocket 4.3 02:28:29 10° NNW 02:34:11 68° W 02:39:55 10° S
Meteor 1-28 Rocket 3.1 02:31:23 10° S 02:35:05 81° WSW 02:38:50 10° NNW
Okean 2 4.5 02:34:52 10° N 02:38:49 45° ENE 02:42:44 10° SSE
Cosmos 468 Rocket 4.0 02:36:26 10° NNW 02:41:47 81° WSW 02:47:05 10° SSE
Cosmos 2233 Rocket 4.5 02:39:39 16° SW 02:44:21 44° WNW 02:50:20 10° N
CZ-2D R/B 3.6 02:40:27 10° NNE 02:44:50 79° ESE 02:49:06 10° S
Cosmos 1271 Rocket 3.3 02:43:20 10° N 02:47:05 56° ENE 02:50:45 10° SSE
Cosmos 1674 Rocket 4.0 02:44:22 10° NNW 02:48:29 42° W 02:52:18 11° SSW
Cosmos 1666 4.3 02:48:04 14° WSW 02:50:02 20° WNW 02:52:52 10° NNW
Cosmos 1850 Rocket 4.1 02:46:38 14° SSW 02:51:20 76° WNW 02:56:43 10° NNE
Cosmos 2322 Rocket 3.6 02:47:05 10° NNW 02:52:30 43° ENE 02:57:53 10° SE
ATLAS 5 CENTAUR R/B 4.1 02:48:04 10° WNW 02:52:37 37° SW 03:07:01 10° SSE
Cosmos 841 Rocket 3.9 02:52:59 10° NNW 02:58:09 66° ENE 03:03:18 10° SSE
Cosmos 540 Rocket 4.0 02:53:13 10° NNW 02:58:21 63° ENE 03:03:27 10° SSE
Cosmos 1782 Rocket 3.8 02:54:00 10° S 02:58:26 73° E 03:02:51 10° NNE
ARIANE 5 R/B 2.7 02:53:31 10° N 02:58:31 58° WNW 03:03:30 10° SSW
Cosmos 1544 3.0 03:00:21 10° S 03:03:55 82° W 03:07:31 10° N
ADEOS II 3.2 03:00:27 10° N 03:05:01 31° WNW 03:09:33 10° SW
USA 238 DEB 4.0 02:58:44 10° SSW 03:05:15 63° ESE 03:12:02 10° NE
USA 238 4.0 02:58:51 10° SSW 03:05:20 62° ESE 03:12:07 10° NE
Cosmos 1743 3.3 03:02:34 12° SSW 03:05:51 40° WNW 03:09:30 10° N
SL-08 R/B 4.0 03:01:51 10° SSW 03:06:10 34° W 03:10:35 10° NNW
Cosmos 1818 3.5 03:01:41 10° NW 03:07:07 68° WSW 03:12:30 10° SSE
ISS -3.8 03:05:13 10° WNW 03:08:34 79° SSW 03:11:55 10° SE
Resurs 1-4 Rocket 4.2 03:06:48 10° NNW 03:09:01 13° NW 03:11:15 10° W
Cosmos 1741 Rocket 4.3 03:04:19 11° SW 03:09:16 56° WNW 03:14:25 10° NNE
Cosmos 1908 Rocket 4.0 03:05:59 10° SSW 03:10:18 47° WNW 03:14:38 10° N
Spot 4 Rocket 4.2 03:05:35 10° N 03:10:41 63° WNW 03:15:46 10° SSW
Landsat 5 3.2 03:08:49 10° S 03:12:44 79° WSW 03:16:36 10° NNW
Abrixas rocket 2.2 03:10:01 10° WNW 03:12:47 44° SSW 03:15:34 10° SE
Nadezhda 4 Rocket 4.1 03:08:10 10° N 03:14:32 87° E 03:20:52 10° S
CENTAUR R/B 3.5 03:10:08 10° S 03:15:33 42° ESE 03:21:50 10° NE
Sich 1 Rocket 3.8 03:17:24 10° S 03:21:57 82° E 03:26:28 10° N
Cosmos 1242 Rocket 3.7 03:19:32 10° NW 03:22:24 24° W 03:25:16 10° SSW
Cosmos 2360 Rocket 3.7 03:19:18 10° NNW 03:24:42 42° ENE 03:30:04 10° SE
ATLAS 5 CENTAUR R/B 2.9 03:21:47 10° NW 03:27:17 41° WSW 03:33:29 10° S
deb Chang Zheng 4 4.4 03:24:39 10° NNE 03:28:50 52° E 03:33:01 10° S
Gbstr 26 Del rocket 3.9 03:27:00 10° WNW 03:31:08 36° SW 03:36:07 10° SSE
